Flag for Brazil Weather past 2 weeks in Cuiabá, Mato Grosso, Brazil

Now
90 °F

Sunny.


Feels Like: 92 °F
Forecast: 76 / 103 °F
Wind: 9 mph from Northeast

Location: Cuiaba Aeroporto

Current Time: Sep 19, 2014 at 8:27:07 AM

Latest Report: Sep 19, 2014 at 8:00 AM


Visibility: 10 mi

Pressure: 29.92 "Hg

Humidity: 46%

Dew point: 66 °F

Location of CuiabáLocation

Historic Weather in Cuiabá — Graph

°F

Cuiabá temperature yesterday

Maximum temperature yesterday: 102 °F (at 2:00 PM)
Minimum temperature yesterday: 73 °F (at 4:00 AM)
Average temperature yesterday: 88 °F

Past Weeks' High & Low Weather Summary

 TemperatureHumidityPressure
High104 °F (Sep 14, 3:00 PM)94% (Sep 5, 1:00 AM)30.04 "Hg (Sep 5, 1:00 AM)
Low70 °F (Sep 5, 4:00 AM)17% (Sep 9, 1:00 PM)29.74 "Hg (Sep 12, 3:00 PM)
Average86 °F54%29.89 "Hg
* Reported Sep 4 7:00 AM — Sep 19 7:00 AM, Cuiabá, Weather by CustomWeather, © 2014

Note: Actual official high and low records may vary slightly from our data, if they occured in-between our weather recording intervals... More about our weather records

Advertising

Cuiabá weather history for previous 24 hours

 ConditionsComfort  
Time TempWeatherWind HumidityBarometerVisibility
7:00 AM
Sep 19
86 °FSunny.6 mph52%29.89 "Hg10 mi
6:00 AM79 °FSunny.5 mph70%29.86 "Hg10 mi
5:00 AM77 °FClear.3 mph74%29.80 "Hg10 mi
4:00 AM79 °FClear.7 mph70%29.80 "Hg10 mi
3:00 AM81 °FClear.8 mph66%29.80 "Hg10 mi
2:00 AM81 °FClear.9 mph66%29.80 "Hg10 mi
1:00 AM84 °FClear.No wind58%29.80 "Hg10 mi
12:00 AM86 °FClear.No wind55%29.80 "Hg10 mi
11:00 PM
Sep 18
88 °FClear.5 mph49%29.80 "Hg10 mi
10:00 PM88 °FClear.1 mph52%29.80 "Hg10 mi
9:00 PM90 °FClear.No wind46%29.80 "Hg10 mi
8:00 PM90 °FClear.2 mph46%29.77 "Hg10 mi
7:00 PM95 °FClear.1 mph34%29.77 "Hg10 mi
6:00 PM99 °FPassing clouds.7 mph29%29.74 "HgN/A
5:00 PM100 °FPassing clouds.8 mph27%29.74 "HgN/A
4:00 PM100 °FPassing clouds.5 mph27%29.74 "HgN/A
3:00 PM102 °FPassing clouds.6 mph26%29.74 "HgN/A
2:00 PM102 °FPassing clouds.6 mph27%29.77 "HgN/A
1:00 PM100 °FSunny.8 mph35%29.80 "Hg10 mi
12:00 PM100 °FSunny.6 mph33%29.86 "Hg10 mi
11:00 AM97 °FSunny.2 mph34%29.89 "Hg10 mi
10:00 AM93 °FSunny.5 mph41%29.92 "Hg10 mi
9:00 AM84 °FSunny.3 mph58%29.95 "Hg10 mi
8:00 AM82 °FSunny.3 mph62%29.95 "Hg10 mi
Weather by CustomWeather, © 2014

See weather overviewHow to use our weather pages